Date String (YYYY-MM-DD hh:mm:ss) UTC,Instrument flags,Ambient pressure (hPa),Sample flow (lpm),Bypass flow (lpm),Sample temperature (°C),Ambient temperature (°C),ASC tube jacket temperature (°C),LED temperature (°C),Box temperature (°C),Sample RH (%),Span deviation,Mass concentration (μg/m³),Mass concentration (μg/m³),Mass concentration (μg/m³)
DateTimeUTC,F1_M11,P_M11,Q1_M11,Q2_M11,T1_M11,T2_M11,T3_M11,T4_M11,T5_M11,U1_M11,ZSPAN_M11,X0_M11,X2_M11,X1_M11
2023-04-27 13:00:00,,0826.1,5.00,0.00,23.6,22.2,00.0,31.9,25.2,15.2,0000.0,0005.66,0003.06,0002.15
2023-04-27 13:01:00,,0826.0,5.00,0.00,23.6,22.2,00.0,32.0,25.2,14.3,0000.0,0005.58,0003.06,0002.15
2023-04-27 13:02:00,,0826.0,5.01,0.00,23.6,22.3,00.0,32.0,25.2,13.7,0000.0,0005.48,0003.02,0002.15
2023-04-27 13:03:00,,0826.0,5.01,0.00,23.6,22.3,00.0,32.0,25.2,14.3,0000.0,0005.38,0002.98,0002.14
2023-04-27 13:04:00,,0826.0,5.00,0.00,23.7,22.3,00.0,32.0,25.2,14.7,0000.0,0005.44,0003.00,0002.13
2023-04-27 13:05:00,,0826.0,5.00,0.00,23.7,22.3,00.0,32.0,25.2,14.3,0000.0,0005.58,0003.01,0002.13
2023-04-27 13:06:00,,0826.0,5.00,0.00,23.7,22.3,00.0,32.0,25.2,14.6,0000.0,0005.61,0003.00,0002.11
2023-04-27 13:07:00,,0826.0,5.00,0.00,23.7,22.3,00.0,32.0,25.2,14.8,0000.0,0005.78,0003.00,0002.10
2023-04-27 13:08:00,,0825.9,5.00,0.00,23.7,22.3,00.0,32.0,25.3,15.0,0000.0,0005.49,0002.97,0002.09
2023-04-27 13:09:00,,0825.9,5.00,0.00,23.7,22.3,00.0,32.0,25.3,14.8,0000.0,0005.38,0002.98,0002.09
2023-04-27 13:10:00,,0825.9,5.00,0.00,23.7,22.3,00.0,32.0,25.2,14.2,0000.0,0005.30,0002.96,0002.08
2023-04-27 13:11:00,,0825.9,5.00,0.00,23.7,22.3,00.0,32.0,25.3,13.8,0000.0,0005.26,0002.91,0002.06
2023-04-27 13:12:00,,0825.8,5.00,0.00,23.7,22.3,00.0,32.0,25.3,14.1,0000.0,0005.34,0002.93,0002.06
2023-04-27 13:13:00,,0825.9,5.00,0.00,23.7,22.3,00.0,32.0,25.3,14.7,0000.0,0005.75,0002.92,0002.05
2023-04-27 13:14:00,,0825.9,5.00,0.00,23.7,22.3,00.0,32.0,25.3,14.4,0000.0,0006.26,0002.95,0002.04
2023-04-27 13:15:00,,0825.9,5.00,0.00,23.7,22.3,00.0,32.0,25.3,13.4,0000.0,0006.19,0002.91,0002.02
2023-04-27 13:16:00,,0825.9,5.02,0.00,23.7,22.3,00.0,32.0,25.3,14.3,0000.0,0006.25,0002.95,0002.01
2023-04-27 13:17:00,,0825.9,5.01,0.00,23.7,22.3,00.0,32.0,25.3,14.5,0000.0,0006.25,0002.96,0002.00
2023-04-27 13:18:00,,0825.9,5.00,0.00,23.7,22.3,00.0,32.0,25.3,14.5,0000.0,0006.11,0002.94,0001.99
2023-04-27 13:19:00,,0825.9,5.00,0.00,23.7,22.3,00.0,32.0,25.3,14.6,0000.0,0005.64,0002.87,0001.97
2023-04-27 13:20:00,,0825.9,4.99,0.00,23.8,22.3,00.0,32.1,25.3,14.2,0000.0,0005.76,0002.90,0001.97
2023-04-27 13:21:00,,0825.9,4.99,0.00,23.8,22.3,00.0,32.0,25.3,14.6,0000.0,0005.81,0002.92,0001.97
2023-04-27 13:22:00,,0825.8,5.00,0.00,23.8,22.3,00.0,32.1,25.3,15.1,0000.0,0005.78,0002.93,0001.98
2023-04-27 13:23:00,,0825.8,5.00,0.00,23.8,22.3,00.0,32.1,25.3,14.8,0000.0,0005.85,0002.93,0001.97
2023-04-27 13:24:00,,0825.8,5.01,0.00,23.8,22.3,00.0,32.1,25.3,14.9,0000.0,0005.57,0002.97,0001.97
2023-04-27 13:25:00,,0825.8,5.00,0.00,23.8,22.3,00.0,32.1,25.3,14.5,0000.0,0005.28,0002.92,0001.97
2023-04-27 13:26:00,,0825.8,5.01,0.00,23.8,22.3,00.0,32.1,25.4,15.3,0000.0,0005.47,0002.91,0001.97
2023-04-27 13:27:00,,0825.8,5.00,0.00,23.8,22.4,00.0,32.1,25.4,15.5,0000.0,0005.45,0002.86,0001.97
2023-04-27 13:28:00,,0825.8,5.00,0.00,23.8,22.4,00.0,32.1,25.4,15.3,0000.0,0005.62,0002.88,0001.97
2023-04-27 13:29:00,,0825.8,4.99,0.00,23.8,22.4,00.0,32.1,25.4,15.2,0000.0,0005.77,0002.90,0001.97
2023-04-27 13:30:00,,0825.8,5.00,0.00,23.8,22.4,00.0,32.1,25.4,14.7,0000.0,0005.87,0002.94,0001.97
2023-04-27 13:31:00,,0825.8,5.00,0.00,23.8,22.4,00.0,32.1,25.4,14.0,0000.0,0005.92,0002.95,0001.96
2023-04-27 13:32:00,,0825.9,5.00,0.00,23.8,22.4,00.0,32.1,25.4,15.8,0000.0,0006.12,0002.90,0001.96
2023-04-27 13:33:00,,0825.9,5.00,0.00,23.9,22.5,00.0,32.1,25.5,19.1,0000.0,0007.50,0003.01,0002.02
2023-04-27 13:34:00,,0825.9,5.00,0.00,23.9,22.5,00.0,32.1,25.5,21.0,0000.0,0007.63,0003.11,0002.09
2023-04-27 13:35:00,,0825.9,5.00,0.00,23.9,22.5,00.0,32.2,25.5,19.4,0000.0,0008.25,0003.14,0002.18
2023-04-27 13:36:00,,0825.9,5.01,0.00,23.9,22.6,00.0,32.2,25.5,15.9,0000.0,0008.26,0003.18,0002.21
2023-04-27 13:37:00,,0825.9,5.02,0.00,23.9,22.6,00.0,32.2,25.5,14.9,0000.0,0008.16,0003.20,0002.22
2023-04-27 13:38:00,,0825.9,5.00,0.00,23.9,22.6,00.0,32.2,25.5,16.3,0000.0,0008.15,0003.22,0002.24
2023-04-27 13:39:00,,0825.9,4.99,0.00,23.9,22.6,00.0,32.2,25.5,16.8,0000.0,0008.90,0003.22,0002.27
2023-04-27 13:40:00,,0825.8,5.00,0.00,24.0,22.6,00.0,32.2,25.5,17.9,0000.0,0009.37,0003.23,0002.30
2023-04-27 13:41:00,,0825.8,5.00,0.00,24.0,22.6,00.0,32.2,25.6,16.1,0000.0,0009.76,0003.28,0002.33
2023-04-27 13:42:00,,0825.8,5.01,0.00,24.0,22.7,00.0,32.2,25.6,16.3,0000.0,0009.90,0003.32,0002.36
2023-04-27 13:43:00,,0825.7,5.00,0.00,24.0,22.7,00.0,32.2,25.6,15.4,0000.0,0010.11,0003.39,0002.39
2023-04-27 13:44:00,,0825.7,4.98,0.00,24.0,22.7,00.0,32.2,25.6,15.4,0000.0,0009.28,0003.36,0002.36
2023-04-27 13:45:00,,0825.7,5.00,0.00,24.0,22.7,00.0,32.3,25.6,15.3,0000.0,0008.97,0003.27,0002.28
2023-04-27 13:46:00,,0825.6,5.01,0.00,24.0,22.7,00.0,32.3,25.6,15.1,0000.0,0008.33,0003.23,0002.20
2023-04-27 13:47:00,,0825.6,5.01,0.00,24.0,22.7,00.0,32.3,25.6,14.6,0000.0,0008.21,0003.22,0002.17
2023-04-27 13:48:00,,0825.6,5.00,0.00,24.0,22.7,00.0,32.3,25.6,14.9,0000.0,0008.28,0003.23,0002.17
2023-04-27 13:49:00,,0825.6,4.99,0.00,24.0,22.7,00.0,32.3,25.6,15.3,0000.0,0008.53,0003.27,0002.17
2023-04-27 13:50:00,,0825.6,5.00,0.00,24.0,22.7,00.0,32.3,25.6,15.2,0000.0,0008.01,0003.30,0002.13
2023-04-27 13:51:00,,0825.5,5.00,0.00,24.1,22.7,00.0,32.3,25.6,15.6,0000.0,0007.65,0003.30,0002.11
2023-04-27 13:52:00,,0825.5,5.00,0.00,24.1,22.7,00.0,32.3,25.6,14.7,0000.0,0007.28,0003.24,0002.09
2023-04-27 13:53:00,,0825.4,5.01,0.00,24.1,22.7,00.0,32.3,25.7,14.9,0000.0,0007.12,0003.22,0002.06
2023-04-27 13:54:00,,0825.4,5.00,0.00,24.1,22.7,00.0,32.3,25.7,14.6,0000.0,0006.67,0003.14,0002.04
2023-04-27 13:55:00,,0825.5,5.00,0.00,24.1,22.7,00.0,32.4,25.7,13.7,0000.0,0006.79,0003.12,0002.01
2023-04-27 13:56:00,,0825.5,5.00,0.00,24.1,22.7,00.0,32.4,25.7,15.2,0000.0,0006.92,0003.15,0002.00
2023-04-27 13:57:00,,0825.5,5.00,0.00,24.1,22.7,00.0,32.4,25.7,15.4,0000.0,0007.26,0003.15,0002.00
2023-04-27 13:58:00,,0825.4,5.00,0.00,24.1,22.7,00.0,32.4,25.7,15.6,0000.0,0007.46,0003.16,0001.99
2023-04-27 13:59:00,,0825.5,4.99,0.00,24.1,22.7,00.0,32.4,25.7,17.4,0000.0,0007.51,0003.17,0001.99
